Theta_e
337 338 341 342 341 340 339 338 337 336 335 334 335 334 333 332 331 331 330 329 328 328 328 328 327 326 317
333 331 334 337 337 337 335 333 331 332 332 332 330 333 332 331 329 329 328 328 327 327 327 326 325 324 318
330 327 329 331 331 330 329 327 325 326 327 328 327 330 331 330 329 328 326 326 326 325 326 325 324 320 319
332 327 327 328 327 326 325 325 326 324 324 326 324 327 329 328 329 327 327 327 323 320 320 322 320 320 321
328 326 326 326 326 325 325 325 321 320 319 320 319 320 319 320 319 322 321 321 320 320 321 320 321 320 318
327 323 323 324 325 324 325 324 320 318 317 317 316 316 317 318 319 320 320 321 321 321 321 321 321 322 318
324 323 321 320 323 324 325 324 323 321 320 320 320 321 321 321 321 320 320 321 321 321 321 321 321 320 317
323 322 321 320 321 322 322 322 323 321 320 321 321 321 321 321 321 322 321 319 319 322 321 324 321 318 317
322 322 321 321 321 320 321 323 323 323 320 321 321 321 323 322 322 322 321 319 317 319 320 320 321 318 315
323 321 320 320 320 320 322 323 323 323 322 320 321 321 325 323 322 320 319 317 317 317 318 317 319 315 311
325 321 321 320 320 321 323 323 323 323 323 321 321 322 325 321 319 319 316 317 317 317 315 314 316 311 309
325 321 320 319 319 321 322 323 323 324 323 321 320 322 322 319 318 317 316 319 318 317 314 316 313 310 303
324 320 319 319 319 319 321 324 324 324 323 321 320 320 318 318 318 318 318 319 318 316 311 312 307 301 296
326 325 321 319 320 322 323 325 325 324 323 321 320 319 319 317 317 317 318 317 317 315 309 307 304 302 299
325 324 320 320 320 320 322 324 325 325 323 322 321 320 320 320 318 318 318 317 314 313 312 307 298 298 299
325 323 323 321 319 322 323 326 325 324 323 323 323 323 322 322 320 320 322 320 317 312 309 307 303 299 294
Wind_Speed
11 12 14 15 16 18 15 14 13 13 13 12 11 12 12 11 11 11 11 9 8 8 9 9 9 9 6
5 9 12 15 15 15 14 13 12 12 11 10 8 9 10 9 8 8 7 6 5 5 6 7 7 8 6
6 5 8 12 13 13 12 12 9 5 6 6 7 8 9 8 7 5 4 3 3 5 7 7 6 3 5
5 5 5 5 4 6 6 7 4 5 5 5 6 8 7 6 5 4 3 1 1 2 2 4 3 5 5
5 3 3 3 2 3 6 5 5 5 4 3 3 2 3 4 2 0 0 1 2 2 3 3 3 5 3
6 4 3 4 4 3 4 6 5 3 4 4 3 4 3 3 3 3 2 1 1 2 2 3 3 5 4
7 5 5 4 3 5 5 6 5 4 5 4 4 3 3 3 2 2 1 0 0 1 1 2 4 7 7
7 6 5 5 4 3 4 5 6 5 5 4 4 4 3 2 3 3 3 1 1 2 0 4 5 6 7
8 6 5 6 6 5 4 4 5 5 5 5 4 4 4 3 4 2 0 0 1 0 4 4 5 7 7
8 6 5 5 4 5 5 5 6 6 6 5 4 4 4 4 3 1 1 0 2 3 2 3 5 7 9
8 6 6 7 5 5 5 6 7 6 6 5 4 4 5 4 3 3 2 2 1 2 2 3 4 6 7
5 5 4 4 5 4 5 4 7 5 7 5 4 5 5 4 3 2 3 3 2 3 3 4 4 5 6
6 5 6 7 6 4 5 8 9 8 7 7 5 5 5 5 6 5 4 5 3 3 4 4 4 4 5
9 6 4 4 4 6 4 7 8 9 9 7 6 5 5 3 5 5 4 2 2 3 3 3 3 1 2
15 6 3 3 2 4 5 6 8 11 9 8 8 7 7 5 5 5 6 7 3 1 3 5 2 4 4
15 12 16 12 12 10 10 7 8 10 10 10 10 9 9 6 6 7 6 4 4 5 2 1 2 5 4
Wind_Direction
106 108 115 117 116 116 115 110 102 94 94 91 94 99 100 97 92 90 84 82 73 54 37 26 18 49 78
98 106 116 117 115 114 115 117 117 113 109 104 92 104 108 102 96 92 91 85 69 59 46 9 17 68 95
117 115 111 124 127 130 131 137 127 117 112 109 109 108 114 114 112 112 112 87 19 349 348 358 31 89 99
140 142 127 126 141 145 146 138 121 129 131 129 133 137 136 142 155 158 123 33 303 331 323 10 31 67 91
149 161 156 147 161 165 153 159 143 131 135 142 147 164 163 179 215 227 9 100 97 94 49 41 51 84 92
152 159 192 170 174 180 176 150 141 131 156 161 171 197 191 200 207 174 167 152 112 125 113 73 59 91 94
153 169 170 215 189 171 168 165 149 169 176 171 196 186 192 167 175 141 139 214 337 232 155 137 91 98 113
156 171 180 171 190 192 189 188 175 171 169 167 165 180 182 167 146 146 156 180 279 248 66 181 108 107 120
165 167 175 184 170 174 195 209 184 182 178 170 171 184 191 165 151 148 123 72 341 48 93 86 128 103 110
168 173 173 184 177 178 174 186 201 190 177 175 180 193 173 156 159 156 153 320 265 65 90 56 116 108 105
180 175 177 181 185 190 180 184 192 192 188 176 190 204 166 151 165 168 187 177 131 71 46 102 98 117 113
170 175 187 180 186 188 189 184 183 192 189 186 188 180 159 156 184 190 184 218 143 145 82 103 101 99 105
183 180 191 196 199 196 198 186 189 192 192 190 189 186 187 179 198 192 190 201 147 145 102 80 44 67 97
198 194 180 167 193 201 202 210 193 188 195 192 190 201 203 205 195 196 197 190 105 154 130 96 158 133 48
198 182 140 141 165 187 204 208 200 194 193 187 193 190 200 189 212 199 194 187 162 157 173 148 135 213 134
189 192 200 202 201 209 209 202 197 190 194 194 199 204 203 200 199 216 209 182 149 169 136 182 122 150 176